FW1609 Weather Reports


time (UTC)temp
C
wind
direction
speed
KPH
gust
KPH
rain 1hr
cm
rain 24hr
cm
rain mn
cm
humidity
%
barometer
mb
20260505063101 17 239 11.3 17.7 0.00 0.08 0.08 49 1015.9
20260505061552 17 253 12.9 20.9 0.00 0.08 0.08 49 1015.7
20260505060051 17 241 16.1 20.9 0.00 0.08 0.08 48 1016.0
20260505054552 17 216 9.7 24.1 0.00 0.08 0.08 49 1016.0
20260505053050 17 243 16.1 20.9 0.00 0.08 0.08 49 1015.6
20260505051544 17 271 4.8 17.7 0.00 0.08 0.08 51 1015.6
20260505041534 17 226 6.4 20.9 0.00 0.08 0.08 49 1015.6
20260505040032 17 285 8.0 20.9 0.00 0.08 0.08 50 1015.8
20260505034538 17 267 11.3 22.5 0.00 0.08 0.08 51 1015.8
20260505033032 17 216 8.0 24.1 0.00 0.08 0.08 52 1016.0
20260505031527 17 245 12.9 27.4 0.00 0.08 0.08 51 1016.0
20260505030041 17 209 6.4 22.5 0.00 0.08 0.08 52 1016.1
20260505024524 17 247 17.7 27.4 0.03 0.08 0.08 54 1016.2
20260505023025 17 213 8.0 19.3 0.03 0.08 0.08 55 1016.4
20260505021521 16 239 12.9 19.3 0.03 0.08 0.08 56 1016.8
20260505020018 16 185 12.9 22.5 0.03 0.10 0.08 58 1017.0
20260505014519 16 209 16.1 22.5 0.00 0.08 0.05 57 1017.2
20260505013019 16 198 8.0 19.3 0.00 0.08 0.05 57 1017.5
20260505011546 16 195 8.0 16.1 0.00 0.08 0.05 61 1017.5
20260505004556 15 209 9.7 25.7 0.00 0.08 0.05 65 1017.7
20260505003034 14 224 6.4 16.1 0.00 0.08 0.05 67 1017.8
20260505001536 14 180 1.6 11.3 0.00 0.08 0.05 70 1017.8
20260505000026 13 149 4.8 9.7 0.00 0.10 0.05 72 1017.8
20260504234520 13 235 4.8 12.9 0.00 0.10 0.05 72 1017.8
20260504233020 12 212 0.0 6.4 0.00 0.10 0.05 75 1017.9
20260504231513 12 151 3.2 8.0 0.00 0.10 0.05 81 1017.8
20260504230010 11 300 0.0 3.2 0.00 0.13 0.05 87 1017.9
20260504224501 10 300 0.0 3.2 0.00 0.13 0.05 91 1017.7
20260504223057 10 300 0.0 0.0 0.03 0.13 0.05 93 1017.8
20260504221634 8 301 0.0 0.0 0.03 0.13 0.05 93 1017.7
20260504220048 8 301 0.0 0.0 0.03 0.13 0.05 92 1017.5
20260504214543 7 301 0.0 0.0 0.03 0.13 0.05 93 1017.1
20260504213040 6 301 0.0 0.0 0.00 0.10 0.05 92 1016.8
20260504211534 6 301 0.0 0.0 0.00 0.10 0.05 90 1016.6
20260504210026 5 301 0.0 0.0 0.00 0.10 0.05 90 1016.6
20260504204522 5 301 0.0 0.0 0.00 0.10 0.05 90 1016.3
20260504203016 6 301 0.0 0.0 0.00 0.10 0.05 90 1015.9
20260504201516 6 301 0.0 0.0 0.00 0.10 0.05 90 1015.8
20260504200015 6 301 1.6 4.8 0.00 0.10 0.05 89 1015.9
20260504194517 6 301 3.2 6.4 0.00 0.10 0.05 89 1015.6
20260504193044 7 301 0.0 0.0 0.00 0.10 0.05 89 1015.3
20260504191604 7 301 0.0 0.0 0.00 0.10 0.05 89 1015.2
20260504190029 7 301 0.0 0.0 0.00 0.10 0.05 88 1015.2
20260504184540 7 301 0.0 0.0 0.00 0.10 0.05 88 1015.1
20260504183024 8 301 1.6 4.8 0.00 0.10 0.05 89 1015.0
20260504181521 8 301 3.2 6.4 0.00 0.10 0.05 89 1014.9
20260504180016 8 289 3.2 4.8 0.00 0.10 0.05 87 1014.8
20260504174512 8 289 0.0 0.0 0.00 0.10 0.05 87 1014.7
20260504173014 9 289 0.0 0.0 0.00 0.10 0.05 86 1014.6
20260504171506 10 289 0.0 1.6 0.00 0.10 0.05 85 1014.8
20260504081518 16 337 4.8 12.9 0.03 0.08 0.03 81 1013.7